Нижняя Тура

Россия / Свердловская область     58°37′51″N   59°51′08″E
темп.,
°C
ветер,
м/с
пор.,
м/с
влажн.,
%
обл.,
%
осадки,
мм/ч
давл.,
гПа
погр.,
м
13 июня, вс
вс1323:00+14ююв226386 0.0 102115
02:00+11ю23729 0.0 102142
05:00+13ююз117481 0.0 102215
08:00+19ю364927 0.0 1021429
11:00+23ююв463775 0.0 1020976
14:00+27ю572851 0.0 10192675
17:00+25ююз4741100 0.0 10181340
20:00+23ююз494731 0.0 1018674
14 июня, пн
пн1423:00+16ююз2265100 0.0 101921
02:00+14ююз227036 0.0 101917
05:00+14ююз2275100 0.0 101939
08:00+20юз365656 0.0 1019435
11:00+25ююз363672 0.0 10181813
14:00+28юз5731100 0.0 10162190
17:00+27юз573482 0.0 10152018
20:00+24юз485399 0.0 1015937
15 июня, вт
вт1523:00+19юз31171100 0.0 1015496
02:00+17юз31186100 0.0 1014389
05:00+17юз399065 0.0 1014310
08:00+21зюз51065100 0.0 1014895
11:00+25з595046 0.0 10141479
14:00+25з574566 0.1 10141671
17:00+26зсз5842100 0.1 10131896
20:00+20юз267362 0.3 1013170
16 июня, ср
ср1623:00+16зюз25914 0.3 101398
02:00+15з11925 0.0 101411
05:00+15з11920 0.1 101411
08:00+21ююв00683 0.0 1014334
11:00+26ююв22485 0.0 10121434
14:00+26ююз325092 0.1 10111315
17:00+26ююз114973 0.1 10101072
20:00+21з4981100 0.4 1011313
17 июня, чт
чт1723:00+18зюз2288100 0.4 101022
02:00+16зюз119275 0.0 101012
05:00+16ююз229153 0.5 100932
08:00+22зюз377064 0.0 1007324
11:00+21зюз1375100 1.6 1007450
14:00+23зсз246792 1.4 1006960
17:00+16сз61185100 6.2 1007630
20:00+17с48578 0.0 10101258